Location: Paxton
(41.0931°N, 81.6876°W)
Time: 06:04:23
(UTC+00:00)

Daily predictions for brighter satellites

Satellite Brightness Start Highest point End
(mag) Time Altitude Azimuth Time Altitude Azimuth Time Altitude Azimuth
Okean 3 Rocket 4.5 12:02:10 10° N 12:06:39 54° E 12:11:05 10° SSE
Cosmos 1408 4.2 12:03:54 10° N 12:07:23 38° ENE 12:10:50 10° SSE
STARLINK 1046 4.3 12:03:40 10° W 12:07:32 38° NNW 12:11:25 10° NE
Cosmos 1076 Rocket 3.7 12:04:44 10° NNW 12:09:00 53° W 12:13:14 10° S
AQUARIUS 4.1 12:05:21 10° N 12:09:49 68° WNW 12:14:16 10° SSW
STARLINK 1039 4.3 12:08:42 10° W 12:12:32 35° NNW 12:16:22 10° NE
Okean-O 3.2 12:08:53 10° NNE 12:13:18 65° ESE 12:17:41 10° S
Cosmos 1461 3.7 12:11:48 10° SSW 12:15:37 54° ESE 12:19:30 10° NE
ATLAS 2AS CENTAUR R/B 4.3 12:11:54 10° WNW 12:17:38 21° NNW 12:23:18 10° NNE
AQUARIUS 4.4 23:03:49 10° S 23:08:18 78° WSW 23:12:49 10° NNW
USA 102 4.2 23:05:34 10° SSE 23:08:24 76° WSW 23:14:07 10° NNW
Okean-O 2.7 23:05:51 10° SSE 23:10:10 56° ENE 23:14:32 10° N
Cosmos 2237 Rocket 3.2 23:05:08 10° NNW 23:10:34 52° WSW 23:15:59 10° S
Cosmos 1939 Rocket 4.3 23:10:24 10° ESE 23:13:02 17° ENE 23:15:43 10° NNE
CORIOLIS 4.3 23:08:14 10° S 23:13:36 80° WSW 23:18:58 10° NNW
SKYMED 2 3.9 23:09:56 10° NNE 23:14:07 45° E 23:18:16 10° S
Cosmos 2366 rocket 4.0 23:13:04 10° S 23:19:09 63° E 23:25:23 10° NNE
YAOGAN 6 2.5 23:21:42 10° SSE 23:25:21 72° ENE 23:28:59 10° N
YAOGAN 1 3.2 23:21:54 10° SE 23:25:47 34° ENE 23:29:42 10° N
SWAS 4.4 23:23:41 10° SSW 23:27:59 82° ESE 23:32:20 10° NNE
Cosmos 44 4.4 23:24:01 10° WSW 23:28:16 37° NW 23:32:23 10° NNE
Meteor 2-10 Rocket 3.4 23:23:03 10° N 23:28:17 84° E 23:33:20 10° S
DELTA 2 R/B (1) 3.9 23:23:40 10° W 23:29:12 66° SSW 23:34:45 10° ESE
USA 267 4.0 23:26:53 10° NE 23:33:05 48° NNW 23:39:17 10° WSW
SL-16 R/B 2.3 23:31:17 10° NNW 23:37:00 86° WSW 23:42:39 10° SSE
CENTAUR R/B 4.1 23:39:22 10° ESE 23:40:49 11° ESE 23:40:49 11° ESE
Cosmos 2082 4.4 23:36:49 10° SW 23:42:17 53° WNW 23:47:50 10° NNE
Ariane Rocket 4.0 23:40:05 10° ESE 23:44:01 23° ENE 23:47:59 10° NNE
Haruka 4.3 23:43:48 10° SSW 23:46:23 20° SSE 23:49:25 12° ESE
Cosmos 2297 Rocket 4.0 23:42:28 10° WSW 23:47:18 28° NW 23:52:10 10° N
NOSS 3-2 (A) 4.1 23:42:46 10° S 23:47:34 29° ESE 23:50:40 19° ENE
Cosmos 1603 4.2 23:44:49 10° N 23:50:01 36° ENE 23:55:09 10° SE
Shenzhou-11 Module 1.7 23:48:31 10° WNW 23:51:12 63° N 23:51:57 40° ENE
Cosmos 1727 Rocket 3.9 23:45:58 10° N 23:52:09 76° E 23:58:19 10° SSE
Cosmos 2263 Rocket 2.7 23:47:48 10° S 23:52:50 37° ESE 23:56:24 18° NE
CZ-4 R/B 1.4 23:50:58 10° SSE 23:55:03 87° WSW 23:59:14 10° NNW
